GFSGL_700_spd_009.txt.gz
Wind_Speed
31 29 31 32 34 40 45 44 42 41 39 37 35 34 33 32 33 33 31 32 31 32 33 33 33 33 35 36 38 40 41 44 47 48 50 50 48 46 46 49 48 48 49
40 44 40 37 37 36 46 50 47 48 46 45 44 42 39 37 36 36 34 34 34 33 34 36 36 37 38 39 41 42 42 45 48 47 48 51 50 52 52 51 51 52 52
43 41 40 45 41 39 40 46 50 53 54 54 55 52 48 44 40 40 39 37 36 36 36 38 39 40 40 40 42 42 44 45 46 47 48 51 53 53 51 53 54 54 55
43 38 39 45 42 44 41 45 47 47 50 54 55 58 58 53 49 45 43 42 41 40 40 40 41 41 43 42 43 43 46 45 44 45 47 50 52 52 54 55 54 55 56
42 40 42 47 49 46 49 50 54 54 53 52 57 58 60 61 59 54 48 48 47 46 43 43 42 43 44 44 45 46 47 48 46 48 49 52 50 52 54 53 55 56 57
53 51 54 53 48 52 51 50 55 61 60 60 61 62 58 56 56 54 53 52 49 49 48 45 45 45 45 46 47 48 48 47 45 48 50 48 49 53 56 58 58 61 63
58 60 63 58 55 50 50 53 55 57 56 59 60 60 59 56 53 52 53 52 51 50 49 47 45 45 47 47 48 48 49 45 47 50 48 47 50 56 58 59 60 62 65
56 59 57 63 53 53 55 57 56 58 57 59 59 57 55 54 52 53 52 50 50 49 47 48 47 47 47 48 48 48 45 43 46 47 49 52 53 55 57 58 60 64 65
43 50 53 57 54 52 50 51 54 58 57 57 58 58 60 54 52 50 50 49 48 50 48 49 49 48 48 48 48 46 44 42 44 46 50 51 49 50 51 57 56 62 67
36 38 42 47 48 45 44 47 51 54 55 54 54 54 50 52 50 48 48 51 49 50 51 49 48 48 48 49 48 44 42 42 43 45 46 45 48 48 48 52 56 60 62
37 40 38 41 44 44 45 46 45 46 48 51 50 50 50 49 51 50 54 53 49 48 50 48 48 49 49 46 43 40 41 42 42 45 44 45 48 49 50 50 52 55 59
38 36 37 39 42 45 45 45 45 46 49 47 47 49 49 51 54 54 53 54 49 48 46 49 50 50 46 41 37 38 41 39 40 42 43 46 49 50 50 51 52 54 56
48 48 46 38 44 42 44 47 47 45 48 51 50 49 50 53 56 57 58 55 52 50 49 50 52 48 45 38 36 36 38 37 40 41 43 46 48 49 50 50 52 53 55
50 49 47 48 46 35 37 36 35 39 46 49 53 52 53 58 57 55 58 58 57 56 57 52 52 43 42 37 35 35 35 36 39 39 43 45 47 47 48 49 52 54 57
44 47 51 46 51 57 49 43 37 32 32 35 35 40 49 54 57 54 54 56 56 55 51 52 41 42 40 36 33 34 34 36 35 38 42 44 45 46 47 47 49 51 55
48 44 45 44 45 47 49 54 49 49 45 42 36 33 29 29 30 34 38 43 51 52 53 44 41 44 38 32 32 33 34 32 32 38 41 42 43 45 47 46 46 50 55
50 47 47 46 47 48 51 53 54 51 48 47 45 46 45 45 43 41 42 45 51 58 51 40 43 39 31 31 33 32 31 29 32 36 40 41 42 45 48 48 49 51 57
49 48 49 48 45 47 51 53 51 51 52 52 49 49 51 50 49 51 52 53 56 56 41 41 40 35 30 29 32 31 29 29 32 34 38 41 42 45 48 50 51 53 57
49 48 48 49 48 46 41 44 47 52 51 53 50 47 48 47 50 55 57 57 53 41 39 39 37 32 27 29 32 29 27 30 32 33 37 41 43 46 48 51 52 53 56
47 44 44 48 47 43 42 41 44 50 50 44 42 42 46 48 48 52 55 52 44 40 39 38 31 25 28 28 29 27 28 31 32 32 38 42 44 45 48 52 53 55 56
40 38 38 40 41 42 44 43 45 47 48 50 44 45 46 46 44 46 49 45 35 37 37 32 25 30 27 29 27 27 27 30 31 33 37 40 43 46 47 50 53 54 56
33 32 33 35 38 39 39 37 36 38 42 45 43 42 40 37 32 29 36 34 36 37 33 26 30 28 29 28 27 26 27 30 32 34 38 39 43 45 47 50 52 54 56
30 30 30 30 32 33 34 34 34 33 33 32 29 32 34 25 23 25 29 36 36 32 27 29 28 29 29 28 27 27 28 31 32 36 38 40 43 44 47 50 53 55 56
25 25 26 27 28 30 32 33 33 32 30 28 31 30 21 22 24 28 32 35 34 30 29 26 27 29 28 27 28 29 30 32 34 37 39 41 43 44 47 50 52 54 55
19 19 21 22 24 26 27 28 28 26 25 22 19 21 24 26 26 29 34 32 26 26 24 25 26 27 27 28 28 29 31 34 36 38 39 41 43 44 47 49 52 54 54
9 11 13 16 17 18 18 18 17 17 17 24 29 27 24 24 28 31 26 24 23 21 23 25 27 27 27 28 29 31 32 35 36 38 39 40 43 44 46 48 50 52 53

GFSGL_700_spd_015.txt.gz
Wind_Speed
37 37 34 32 30 28 26 25 23 24 24 28 35 41 46 48 49 49 46 42 40 37 34 31 29 29 31 32 33 33 32 30 29 29 29 30 30 32 31 31 30 29 29
48 50 52 47 42 41 36 35 36 37 36 36 34 41 47 49 51 53 51 47 43 41 38 36 34 33 32 31 33 36 36 35 33 32 31 31 31 31 30 29 30 30 29
56 55 53 50 48 46 42 41 41 42 44 46 46 44 46 52 55 56 57 55 51 46 46 44 41 39 37 35 33 35 36 37 36 36 35 35 33 32 32 30 30 31 30
57 56 58 58 53 44 45 42 42 40 45 50 49 51 50 52 57 59 62 62 57 55 52 51 49 46 43 41 39 39 37 38 39 38 39 36 34 33 31 30 29 29 30
56 61 59 58 55 54 48 47 45 44 45 47 54 58 55 55 57 60 62 63 63 61 60 58 57 53 51 49 47 45 43 43 41 39 41 40 35 34 32 33 32 32 33
55 57 56 50 53 55 55 54 50 50 49 51 50 54 53 53 52 53 57 62 63 65 64 62 62 60 57 56 54 52 50 48 46 44 42 42 38 36 35 35 36 38 38
45 47 52 56 59 60 62 62 60 55 53 51 49 53 56 53 51 51 55 56 58 63 64 64 63 64 62 61 60 58 55 54 51 46 45 43 41 38 38 39 39 41 42
53 52 49 52 52 55 56 53 53 54 56 55 52 52 59 63 63 60 60 58 55 56 61 62 62 65 64 64 63 60 57 55 54 50 44 41 43 42 41 43 44 45 45
47 51 52 53 54 52 48 50 52 54 56 55 55 55 58 63 67 73 74 70 71 73 66 61 62 61 61 63 64 62 61 60 55 52 47 43 43 42 44 47 47 46 46
48 46 46 45 47 51 54 51 50 50 51 53 54 53 55 55 62 66 68 69 70 73 74 69 65 60 59 63 66 66 63 60 55 48 47 45 43 43 44 45 46 45 45
54 51 48 48 49 48 49 50 50 52 50 50 51 51 53 54 53 62 65 68 73 73 75 72 69 61 61 65 67 67 63 56 49 50 51 47 43 43 42 43 45 44 44
61 61 60 57 52 51 52 53 51 50 51 52 50 52 47 50 48 48 56 62 70 75 74 68 64 62 58 61 66 66 62 53 55 55 50 47 42 41 39 40 42 42 40
69 69 66 65 62 60 57 55 55 55 52 53 51 51 54 44 38 44 53 57 61 64 66 63 62 55 53 58 65 63 59 60 56 50 47 48 46 40 38 39 38 38 36
74 76 76 75 71 67 63 58 56 55 56 54 53 50 46 53 39 32 38 48 56 60 62 62 58 55 61 59 65 60 63 55 50 50 52 48 44 40 38 36 34 35 34
81 81 82 83 80 75 68 62 58 57 56 56 54 52 48 46 43 36 31 31 40 52 56 50 58 62 63 62 61 66 61 53 54 57 50 44 44 40 34 35 33 34 36
86 85 85 84 81 75 70 66 60 58 56 54 51 51 50 48 41 37 36 30 28 33 43 46 49 52 57 58 59 60 56 57 57 48 44 46 43 34 34 35 35 36 36
85 84 82 80 78 74 69 65 59 51 54 51 49 47 47 47 45 42 38 37 35 29 25 30 39 44 46 47 51 53 54 52 46 45 47 42 37 33 36 33 35 35 37
70 68 67 64 61 58 56 52 50 49 48 47 43 44 44 43 42 43 43 42 42 39 35 31 31 36 40 39 42 45 46 44 45 46 41 39 40 35 31 33 33 37 39
46 45 44 45 44 43 41 39 41 42 44 40 39 40 39 38 39 40 43 39 41 43 40 36 35 37 36 37 36 39 38 40 42 40 38 37 36 32 30 32 36 39 39
32 30 28 28 27 26 27 30 33 35 36 36 37 36 34 35 36 35 35 36 34 40 38 35 33 32 31 32 33 35 36 38 40 39 37 37 31 28 33 35 37 39 39
23 20 18 18 18 19 20 22 24 28 31 32 28 28 28 30 30 30 27 25 26 27 27 24 26 26 25 30 33 35 37 38 37 36 34 29 26 31 34 36 38 39 41
19 17 15 15 14 15 17 19 20 22 24 23 22 21 22 25 27 28 28 27 23 22 19 16 19 24 27 31 32 32 34 35 36 32 27 25 28 32 34 37 39 40 42
17 15 14 14 13 13 13 13 14 15 16 14 14 16 19 21 22 22 22 20 18 17 17 20 25 29 31 32 32 33 34 34 29 26 24 26 30 33 35 37 38 40 43
16 14 13 12 11 10 10 9 8 8 9 9 10 13 14 13 13 15 18 21 22 23 24 29 29 27 26 27 29 33 32 25 24 22 24 28 31 33 35 36 38 41 44
23 18 14 12 10 8 6 4 2 2 5 6 8 9 12 15 16 18 21 24 24 25 24 23 23 23 25 29 31 24 21 20 20 23 27 29 31 33 35 37 40 43 46
35 34 29 22 15 11 8 5 1 3 7 10 12 14 17 19 19 20 21 22 22 20 18 19 20 24 26 23 20 19 17 19 23 26 28 29 31 33 35 38 41 45 48

GFSGL_700_spd_021.txt.gz
Wind_Speed
39 41 42 43 44 47 47 42 41 41 42 42 36 34 34 33 34 40 45 49 52 53 54 54 55 55 54 52 53 52 49 48 45 44 38 37 37 36 35 36 36 37 38
37 38 40 41 44 46 46 47 44 42 42 43 43 40 38 39 37 36 39 45 50 53 54 55 58 57 57 56 55 55 52 49 48 47 41 37 38 37 36 37 36 37 38
32 33 34 35 38 40 41 42 44 41 41 42 41 41 40 42 41 40 41 42 46 50 53 55 57 58 59 59 58 57 55 52 51 50 46 39 38 39 39 38 38 37 38
38 39 40 40 41 43 46 47 49 51 49 46 43 40 42 43 43 41 39 40 43 47 52 54 57 59 60 60 61 59 57 55 54 53 50 44 42 42 43 41 40 39 39
45 47 48 50 52 51 51 52 53 55 54 52 49 47 45 48 48 49 49 48 44 45 48 50 54 57 60 62 62 63 61 58 57 56 57 52 49 48 44 43 42 41 43
48 49 49 51 52 53 56 58 56 55 56 55 53 55 55 56 54 57 57 58 57 50 48 51 48 51 57 63 64 65 65 64 63 61 64 61 55 52 50 46 47 48 46
48 46 46 48 51 51 51 51 52 55 56 55 56 55 55 54 55 55 57 62 60 60 58 58 58 53 51 55 63 67 68 68 69 65 67 67 60 58 53 50 52 55 55
48 48 50 51 52 53 55 56 56 56 55 57 57 58 58 55 55 55 55 58 59 62 62 57 60 63 64 66 63 66 68 72 73 71 72 67 64 63 61 57 56 58 63
56 58 60 61 61 60 58 57 57 58 59 57 56 58 59 61 57 56 56 57 59 59 60 62 63 61 63 72 75 70 70 72 74 73 72 70 68 67 66 66 68 68 68
62 65 65 65 66 66 65 63 62 60 61 61 61 59 58 60 59 58 56 58 61 60 61 59 62 60 58 61 67 65 70 71 72 73 73 71 73 73 71 70 69 68 67
64 67 69 70 72 73 74 73 73 73 72 71 70 68 66 63 61 58 57 56 59 62 61 61 58 58 55 55 61 67 66 67 69 70 72 74 75 76 74 73 73 70 70
69 73 77 79 81 82 84 84 84 84 84 81 81 79 73 70 67 64 62 59 56 60 64 61 61 57 54 52 53 60 65 67 70 72 74 75 76 77 76 73 70 71 68
76 78 80 82 83 84 86 86 86 86 87 86 83 81 76 72 69 67 66 64 60 57 60 61 60 60 54 51 49 53 57 63 71 75 75 75 75 79 77 73 70 66 67
78 79 79 81 82 83 85 85 86 86 86 86 86 84 78 73 68 65 66 64 61 56 57 58 57 59 60 53 47 50 55 58 64 70 71 69 73 77 78 74 70 71 66
75 79 82 81 77 73 69 67 66 65 65 68 69 70 72 72 65 63 64 64 63 56 53 53 54 57 62 58 50 47 51 55 60 62 63 63 67 69 72 73 71 68 69
76 74 63 58 55 52 50 48 44 45 45 46 48 52 55 59 61 57 57 61 63 59 53 50 51 54 59 59 52 46 47 53 57 59 58 61 64 63 66 69 68 68 61
68 55 50 47 43 40 37 37 39 32 30 33 36 37 39 42 45 48 51 53 56 54 53 49 49 51 54 55 50 46 44 47 53 54 51 53 55 55 56 61 62 60 58
52 44 43 39 36 34 34 34 34 35 33 24 20 28 29 30 33 36 39 43 47 48 48 45 46 49 48 43 44 42 44 44 47 47 42 44 46 47 51 57 55 50 52
46 39 35 33 30 30 31 31 31 31 29 26 20 14 21 20 19 21 25 33 38 39 39 41 43 46 43 35 37 37 37 36 33 30 32 36 40 45 50 48 45 48 49
44 36 33 31 29 28 28 30 30 30 27 23 20 17 13 15 14 15 19 23 27 29 35 37 39 40 36 32 30 29 27 28 26 26 29 32 33 37 39 42 48 49 45
43 42 35 28 27 26 27 28 28 27 25 22 19 16 14 15 17 17 18 20 23 27 30 30 34 34 32 28 22 22 25 26 24 23 25 27 30 33 36 39 40 39 40
40 43 42 35 28 26 26 27 28 27 25 23 18 16 16 16 15 13 14 16 21 23 22 25 26 27 24 18 19 20 23 24 21 23 24 25 29 31 32 34 35 37 39
38 39 41 40 35 29 26 26 26 26 24 22 19 16 14 11 8 7 9 13 17 18 19 20 19 15 13 18 18 19 21 23 22 21 22 25 27 28 30 31 33 34 34
36 37 38 40 40 36 30 27 26 26 24 22 18 14 10 7 4 4 5 7 11 13 13 10 11 13 13 16 17 19 21 21 22 23 22 23 25 26 27 28 29 31 32
31 32 34 35 35 36 35 31 28 26 24 21 17 11 8 8 10 6 4 3 3 5 6 8 11 15 13 13 13 13 16 19 20 20 21 23 24 24 26 28 29 28 27
28 28 29 30 31 31 31 31 30 27 24 22 19 15 14 14 12 10 7 6 7 7 7 6 6 4 4 5 9 12 14 15 16 17 18 19 21 23 25 24 23 22 22

GFSGL_700_spd_024.txt.gz
Wind_Speed
44 41 37 35 36 38 38 35 34 34 33 35 36 37 38 39 40 39 37 37 37 38 41 46 52 56 58 56 55 54 56 56 56 54 51 47 45 40 35 34 33 31 32
43 39 41 42 40 39 37 37 37 36 36 35 33 32 34 37 39 39 40 40 40 40 40 44 46 51 55 57 58 58 58 57 56 57 55 51 48 43 39 38 36 33 33
35 35 36 37 39 39 40 41 42 43 44 44 45 44 42 38 39 40 41 43 41 40 41 43 46 48 52 55 58 60 59 59 58 61 60 56 54 50 44 42 40 37 35
35 37 39 39 42 45 48 49 51 51 52 52 52 51 50 49 45 43 42 44 47 46 45 45 45 46 49 52 55 59 60 62 60 61 64 61 58 55 50 47 46 39 36
42 44 46 48 50 51 52 53 53 54 55 56 57 57 57 55 55 53 52 51 51 52 55 55 52 49 47 47 52 57 59 61 63 65 66 66 63 62 55 47 46 43 39
44 44 44 45 46 48 50 52 53 53 53 53 54 55 56 56 56 55 57 57 58 60 60 57 61 59 54 50 51 52 58 61 62 66 68 70 68 63 58 53 50 50 49
47 46 45 46 47 47 48 51 53 57 59 59 60 59 59 58 57 57 57 58 60 61 62 62 60 59 64 63 55 53 54 58 62 63 67 72 70 67 61 58 55 53 51
50 53 54 55 55 56 58 59 59 60 62 63 64 63 64 63 62 60 58 60 61 61 62 62 63 63 60 61 67 63 59 58 60 63 64 68 69 72 68 63 57 52 55
53 56 59 61 63 64 65 66 66 67 66 66 66 66 67 67 64 64 63 62 61 64 63 63 63 64 62 62 62 66 67 63 60 65 65 67 69 72 73 69 68 66 68
56 59 62 65 68 71 72 73 74 76 77 76 74 71 71 72 70 67 66 68 68 65 63 63 63 64 63 62 62 62 64 65 60 61 67 69 71 74 77 76 72 70 67
61 65 67 70 73 75 77 78 79 79 79 79 79 77 75 74 73 71 72 73 74 73 70 66 63 63 63 62 62 64 65 59 61 64 63 65 72 74 76 80 77 74 73
68 72 72 71 72 74 76 77 79 82 84 84 84 83 82 79 76 73 71 71 73 75 76 73 67 61 61 64 63 63 62 61 58 60 63 65 65 69 74 73 78 81 77
71 67 68 70 70 72 76 79 77 72 69 68 69 69 70 70 72 73 75 75 71 71 73 74 71 66 63 63 65 63 58 57 61 56 60 60 61 62 68 72 74 75 75
65 64 64 68 70 75 67 57 55 53 50 50 50 51 52 53 54 56 59 63 67 68 67 68 70 68 66 63 63 62 60 58 59 59 56 57 55 59 65 73 75 77 77
59 61 62 67 71 58 48 44 43 40 40 41 42 43 45 46 44 43 42 45 50 51 55 61 64 67 65 61 60 58 58 56 55 56 54 55 57 56 58 63 66 70 74
56 56 61 65 57 46 42 39 35 33 33 34 36 39 42 43 42 39 37 36 40 44 50 57 61 64 64 59 55 54 54 51 48 47 49 48 53 56 54 56 60 64 62
51 54 57 59 51 42 38 37 38 32 28 28 31 33 36 41 40 37 33 31 31 35 47 50 55 56 57 53 48 50 50 45 41 40 42 44 49 51 51 52 51 50 48
47 50 52 53 47 38 35 34 34 36 35 29 22 28 32 35 34 30 27 25 25 27 37 44 46 47 48 46 44 44 44 40 38 38 39 42 43 43 42 43 41 41 44
44 45 48 49 44 37 33 31 32 32 32 31 29 22 25 28 28 26 25 22 19 17 18 21 24 29 32 34 37 38 37 36 35 33 32 36 34 34 34 35 36 35 38
41 42 44 44 44 38 32 30 29 29 30 30 30 30 27 26 23 21 21 22 21 18 17 20 21 25 25 29 32 31 28 31 30 26 27 28 27 29 30 31 33 34 37
38 39 39 39 39 37 34 32 32 31 31 31 30 29 27 26 23 20 16 13 14 13 10 9 10 15 17 24 23 22 23 22 23 22 23 23 24 27 26 28 30 30 31
35 36 36 36 35 35 35 33 33 32 30 29 28 27 25 22 19 15 12 9 5 7 5 6 9 16 19 15 14 14 16 17 19 18 20 20 22 23 22 22 24 26 27
32 32 33 33 32 32 32 33 33 32 31 29 27 25 23 23 20 16 14 12 9 10 11 11 11 9 5 8 11 14 14 15 16 17 19 19 22 22 20 21 21 24 26
28 29 29 29 29 30 30 30 31 31 31 29 27 25 24 23 21 18 15 12 10 9 7 6 6 10 10 10 11 14 15 16 18 18 19 21 21 17 16 16 18 20 23
26 26 27 26 26 26 26 27 28 28 28 27 26 25 24 22 20 19 17 14 12 9 6 2 4 3 2 3 5 7 9 11 15 17 21 22 17 15 16 17 19 21 22
23 24 24 24 24 24 23 23 24 25 25 25 24 23 22 21 20 19 17 14 12 10 9 6 4 3 2 2 4 5 6 9 12 16 17 16 15 16 16 17 18 19 21

GFSGL_700_spd_030.txt.gz
Wind_Speed
43 43 37 35 35 35 34 33 34 35 37 38 37 38 39 39 42 43 43 45 47 47 43 43 44 44 45 44 44 46 47 48 56 55 56 57 58 57 56 52 50 48 47
43 41 38 35 35 35 35 37 38 38 39 40 41 43 45 45 44 46 47 48 48 46 47 48 46 45 47 46 46 47 48 48 51 54 53 54 56 58 59 58 56 54 52
31 31 33 35 37 39 42 44 46 47 47 48 49 50 51 52 52 52 54 55 55 55 55 54 52 51 50 50 49 49 48 49 51 53 53 51 53 57 60 61 60 59 57
28 29 31 33 36 39 42 45 48 50 53 54 54 54 54 55 56 56 57 58 58 59 60 59 60 60 58 56 55 52 52 51 50 52 55 55 52 53 57 62 63 62 60
31 33 36 39 40 41 41 41 43 45 48 51 54 56 58 59 59 60 61 62 64 64 64 64 64 62 63 63 64 61 58 57 57 55 54 55 56 56 55 57 60 62 62
36 37 36 36 36 38 40 41 44 47 51 55 58 61 63 64 64 66 67 68 69 69 69 68 68 68 66 65 65 66 68 66 63 62 62 61 57 56 55 57 57 60 64
35 36 37 38 39 40 42 46 51 56 62 65 66 67 66 66 67 69 71 73 74 74 73 74 74 73 72 71 69 67 69 69 70 69 68 66 65 63 60 57 55 59 62
35 36 37 38 40 42 48 53 59 64 68 68 66 64 64 63 64 65 67 70 73 74 76 76 77 77 76 76 75 74 71 70 71 71 73 73 68 64 64 66 62 55 58
38 38 39 41 43 48 53 59 65 67 62 59 61 63 64 66 68 69 71 71 71 71 72 74 77 79 78 77 78 80 78 76 71 71 71 71 70 67 63 62 67 67 62
38 38 40 41 45 51 58 65 63 58 58 59 61 64 69 70 67 63 59 58 57 57 58 61 66 73 79 81 80 79 81 80 76 72 71 72 70 67 63 62 65 65 68
39 39 38 42 47 55 62 61 56 55 56 60 64 70 65 55 48 45 43 43 45 45 48 51 54 56 59 68 77 82 82 79 78 77 73 71 70 71 68 65 66 67 65
39 39 41 45 50 56 59 52 52 55 59 63 68 64 49 41 39 39 38 40 43 46 48 50 51 52 53 56 61 70 77 79 78 77 77 75 71 71 70 66 63 63 63
39 39 43 45 50 55 53 50 52 55 59 64 65 55 44 37 35 35 36 39 43 46 46 47 48 50 50 52 54 57 64 74 77 76 76 75 74 70 64 63 61 58 60
38 40 43 46 51 52 49 48 52 54 59 62 59 49 40 36 35 36 38 37 37 39 39 40 40 42 41 43 48 51 53 57 64 70 69 68 67 68 66 62 60 57 56
38 41 43 46 50 52 48 47 51 51 56 60 58 51 45 40 37 36 37 36 37 37 38 39 40 42 43 40 39 42 45 43 45 53 56 57 59 59 62 60 57 55 53
38 40 43 46 50 51 48 47 43 47 49 52 52 49 45 41 39 37 35 36 36 34 34 35 36 37 40 40 41 41 38 32 34 30 43 41 45 54 54 54 52 51 51
38 41 42 46 50 50 46 48 50 38 39 45 45 43 40 38 36 36 34 33 30 30 30 30 31 34 37 36 35 35 34 35 34 40 41 43 47 49 50 50 46 46 47
40 43 45 48 50 48 45 46 46 45 43 35 34 36 34 31 32 31 31 30 26 22 22 24 28 31 35 26 25 24 25 29 32 38 39 42 42 41 41 44 43 43 44
42 44 47 49 49 46 43 44 42 40 40 40 36 29 29 28 29 30 29 29 27 21 19 19 23 28 23 17 15 18 18 16 31 33 29 29 31 33 37 40 41 41 41
43 47 47 49 47 43 40 41 38 36 35 36 36 35 31 27 24 25 26 25 24 23 23 23 22 21 18 14 10 11 11 11 9 12 19 22 26 32 35 36 38 37 37
45 47 47 48 45 39 37 37 34 32 31 31 32 31 32 32 31 29 27 27 27 24 23 23 23 22 20 19 18 17 14 9 10 11 15 17 20 25 28 31 34 34 33
47 47 46 44 40 35 34 34 30 28 27 27 27 27 28 28 28 29 28 27 28 27 26 24 23 22 22 22 22 22 19 18 13 12 15 18 20 21 23 24 25 26 26
47 44 41 38 33 31 31 30 27 25 24 25 25 24 24 25 26 26 27 27 26 25 25 24 21 20 18 18 19 19 18 18 18 18 19 21 21 21 21 20 18 18 18
43 38 36 31 29 28 28 27 24 23 22 23 23 23 23 24 25 26 26 25 25 25 23 21 21 20 19 18 17 16 16 17 17 17 16 17 19 21 21 21 21 20 21
38 34 29 27 27 26 26 24 23 21 21 21 21 21 21 21 22 23 24 25 24 23 23 22 21 19 19 18 16 15 14 13 12 11 11 13 14 16 18 18 18 19 21
32 27 24 25 24 25 24 22 21 20 19 20 20 21 20 20 21 21 21 22 22 22 21 21 21 20 19 18 17 17 15 11 9 7 5 5 7 9 10 11 13 14 15

GFSGL_700_spd_033.txt.gz
Wind_Speed
41 40 40 43 43 42 39 39 39 37 37 38 40 42 44 46 46 47 47 48 49 48 46 48 48 48 48 46 50 53 54 53 58 55 52 49 46 45 47 53 57 58 56
35 36 36 33 31 31 33 36 38 39 41 44 45 46 47 48 50 53 54 53 54 54 54 55 55 52 52 52 52 51 51 54 58 61 54 54 53 48 48 48 52 57 59
34 33 32 31 31 31 32 35 38 40 42 45 47 49 51 51 52 52 54 57 58 60 61 62 61 62 61 59 58 57 57 57 56 60 61 57 56 54 52 52 51 53 57
31 30 30 30 33 35 37 39 39 39 40 41 43 45 48 51 53 56 58 60 61 62 62 63 64 65 66 66 65 65 63 63 64 63 63 62 60 57 54 55 54 53 53
30 31 32 33 35 36 36 36 37 39 41 43 46 49 53 57 60 63 64 65 66 66 65 66 66 65 66 68 68 68 68 69 68 69 69 68 65 61 58 55 56 56 55
31 33 35 35 35 35 36 37 38 40 42 46 51 57 62 64 64 63 63 64 65 67 68 67 66 68 69 69 69 70 70 71 72 72 72 73 72 68 64 60 58 56 58
35 34 33 34 36 37 37 37 40 42 45 51 56 63 65 62 58 58 60 62 64 65 66 68 69 67 66 67 70 72 72 73 73 73 76 75 74 71 69 67 63 64 60
32 32 34 36 36 36 36 38 40 44 50 56 62 64 58 56 57 60 63 65 68 70 70 69 69 68 67 67 67 68 71 74 74 74 75 76 76 75 74 70 67 67 67
32 34 35 35 36 37 39 39 43 49 54 60 63 56 55 58 61 64 67 70 69 63 57 55 54 53 54 55 59 62 64 67 73 74 75 76 75 76 74 73 74 71 74
34 35 35 36 37 38 39 42 46 51 57 62 56 54 56 60 61 63 63 59 51 44 41 39 39 40 42 45 48 51 54 56 59 64 73 76 76 77 75 74 74 74 74
34 36 36 36 37 38 40 43 47 53 59 58 53 54 58 57 59 58 52 45 41 38 37 36 37 40 44 47 49 50 52 54 56 60 64 67 73 77 78 76 75 74 74
37 38 37 37 37 38 40 43 48 53 58 55 53 56 55 53 54 50 45 42 39 40 39 41 43 45 48 49 50 50 50 52 55 58 61 62 65 71 74 76 75 73 72
38 38 37 38 38 39 41 43 47 52 56 54 54 57 53 51 49 40 35 34 35 39 41 44 45 46 47 47 46 46 47 50 54 57 59 61 61 60 65 68 72 71 70
38 37 39 40 38 40 42 44 47 52 54 53 54 55 52 52 52 47 40 35 32 32 34 36 37 37 38 40 41 40 42 45 48 53 56 57 54 54 56 60 62 64 64
39 41 42 42 38 40 42 45 49 52 53 53 55 55 52 52 50 49 46 44 40 38 39 37 35 35 37 38 40 41 42 43 44 45 47 49 45 43 45 51 47 52 55
40 40 40 38 39 41 43 45 48 51 50 50 51 50 49 49 48 46 44 41 39 38 37 34 32 31 32 34 37 38 37 38 40 42 41 32 23 20 31 36 35 43 46
39 38 40 39 41 43 45 48 50 46 45 46 47 44 44 45 44 43 42 40 37 37 35 31 29 28 29 32 35 31 30 30 34 40 38 24 19 14 24 32 33 34 38
37 40 39 41 43 44 47 49 52 54 49 38 38 40 40 40 40 39 39 37 34 32 34 32 31 30 29 30 30 28 26 28 32 38 24 20 19 20 17 33 36 38 41
38 40 40 41 43 45 47 50 53 52 47 44 37 32 34 34 35 36 36 37 35 32 29 28 29 30 30 29 28 26 27 26 27 25 24 27 26 24 25 29 35 38 33
40 42 43 42 43 46 49 52 52 47 42 39 36 34 30 28 29 29 31 32 32 31 30 29 27 26 26 26 27 29 29 28 27 25 18 12 18 22 25 25 27 26 27
42 42 43 44 47 48 49 50 46 41 38 34 32 31 32 30 29 29 29 30 31 31 29 28 27 25 24 23 22 23 24 24 24 23 20 13 9 14 15 17 22 30 25
41 42 45 48 48 48 48 45 40 36 34 30 28 28 27 27 27 28 28 29 30 30 31 30 28 28 27 25 24 23 23 22 21 22 23 21 20 19 17 17 19 21 25
47 48 48 47 48 47 45 40 35 33 30 28 26 25 24 24 24 26 26 27 28 28 28 28 28 27 26 25 25 25 23 20 19 19 21 22 22 21 21 22 22 22 23
51 49 48 46 45 42 38 34 31 30 28 26 25 24 23 23 23 24 24 25 25 25 26 26 27 27 26 26 26 24 22 19 18 17 17 17 16 17 19 20 22 23 24
50 46 44 41 38 36 32 29 28 28 26 25 23 23 23 23 23 23 23 24 24 24 24 24 24 24 24 24 24 23 22 20 17 15 13 13 12 12 14 16 18 19 20
42 40 37 35 33 29 27 26 26 25 24 23 21 21 21 20 21 22 22 22 22 22 23 23 22 21 21 21 21 21 21 20 19 17 15 13 11 9 9 10 11 12 14

GFSGL_700_spd_036.txt.gz
Wind_Speed
41 41 41 41 42 41 41 41 38 36 35 37 38 39 41 42 43 45 47 50 51 52 53 54 54 53 54 53 53 54 55 55 61 58 57 59 56 51 47 47 47 46 50
38 37 37 36 34 34 33 32 32 33 37 40 41 42 43 44 45 46 48 49 52 54 56 57 58 58 58 58 58 59 59 59 62 66 60 57 60 57 54 52 49 49 48
35 35 35 33 33 33 32 34 36 37 38 39 41 41 42 43 44 46 48 50 52 53 55 58 59 61 62 62 62 63 64 64 64 69 69 64 63 62 61 58 56 51 49
35 34 34 32 32 33 34 36 37 37 37 37 39 40 41 43 46 50 54 57 58 59 59 59 59 60 63 65 67 67 66 67 68 70 72 72 69 66 66 65 62 59 55
33 33 32 33 34 37 38 37 37 37 39 39 39 40 42 45 50 55 60 62 61 58 57 57 57 58 59 59 62 66 70 71 71 71 73 74 74 71 68 68 67 67 64
32 32 35 37 38 37 36 36 38 38 38 38 40 42 45 50 56 61 62 58 55 56 57 57 59 60 60 60 59 60 63 67 72 73 73 73 74 74 71 70 69 67 69
35 37 37 36 33 34 37 37 37 36 37 38 40 43 47 53 59 61 55 55 56 58 60 62 62 62 64 65 65 64 62 62 64 67 73 74 74 73 74 73 69 70 70
36 35 32 31 33 36 37 37 35 36 37 39 42 46 51 55 61 56 54 56 58 59 60 61 60 59 56 53 52 52 53 54 57 61 65 67 70 73 74 74 73 73 73
32 31 31 33 36 36 36 35 35 37 38 39 43 48 53 57 58 54 55 58 57 56 56 53 50 45 40 38 37 38 37 36 37 41 44 49 54 60 66 72 75 74 78
31 31 32 35 35 35 36 34 36 38 39 41 44 50 53 57 55 53 56 56 55 56 53 46 39 38 36 34 34 35 36 37 40 41 42 44 46 48 51 58 64 72 75
32 32 33 36 37 37 36 36 37 38 40 41 45 49 52 56 53 52 53 52 52 52 49 44 39 36 36 36 37 39 42 43 44 45 46 47 47 48 50 52 54 61 67
32 33 35 38 39 40 35 38 37 39 40 43 46 49 53 55 52 51 50 46 46 47 43 39 37 35 35 35 37 38 39 40 41 42 45 46 48 50 52 54 55 58 61
33 36 37 39 41 39 37 39 39 39 41 43 47 50 53 54 51 49 46 43 44 44 42 39 37 34 33 33 33 34 35 37 40 44 46 47 48 52 55 57 58 58 60
36 38 39 39 40 40 40 40 41 39 42 45 48 50 55 56 52 50 47 44 44 43 42 39 37 36 34 33 32 30 30 31 35 38 42 44 47 50 55 57 57 54 55
38 39 39 41 40 42 42 39 39 41 44 47 50 53 58 57 52 49 45 43 44 43 42 39 37 35 34 32 29 29 29 31 32 33 35 38 41 47 50 48 43 38 44
38 39 39 40 40 42 38 40 41 44 46 48 50 53 57 55 51 46 42 40 40 40 38 39 37 36 35 33 32 30 29 30 31 31 34 39 42 51 45 19 18 23 36
39 40 41 40 38 38 39 41 41 42 46 47 51 53 54 50 47 43 39 38 39 38 38 38 37 36 35 33 33 33 31 28 29 30 33 37 38 43 17 11 14 14 13
42 42 40 39 38 39 39 41 42 44 44 47 48 51 50 43 42 40 38 35 32 33 35 35 34 33 32 32 30 30 29 29 30 31 32 35 34 36 21 19 13 11 13
42 41 40 41 41 39 39 41 42 43 46 48 49 45 43 38 37 36 35 34 31 30 30 31 32 32 30 29 28 27 27 27 27 27 26 26 29 29 21 20 18 17 16
45 44 43 43 42 40 40 40 42 45 48 49 49 43 35 32 30 30 31 29 29 29 29 29 29 30 30 28 27 26 25 25 25 24 23 20 21 24 20 15 17 21 23
46 46 45 43 41 40 39 41 45 47 48 47 44 39 34 31 28 27 26 26 27 27 27 28 28 29 29 29 28 26 26 25 25 24 23 22 21 21 21 23 20 18 18
49 49 48 46 45 43 43 45 46 46 45 42 37 34 32 30 28 26 25 25 26 27 27 27 27 29 30 30 29 27 28 27 24 22 21 21 21 21 21 22 21 21 19
56 55 54 52 51 49 47 45 45 43 40 36 31 29 29 28 28 26 25 25 25 26 26 26 26 25 27 27 29 29 29 29 27 25 21 19 18 17 16 17 18 19 20
60 58 56 54 51 48 45 44 41 38 35 30 29 28 27 25 26 25 24 24 24 25 26 25 25 25 25 25 25 26 26 27 26 24 23 21 18 16 14 13 14 16 17
54 51 49 47 45 43 41 39 36 33 29 26 26 25 24 23 22 21 21 21 21 22 23 24 24 23 23 23 23 23 23 24 24 24 22 21 20 18 15 13 12 12 13
43 41 37 35 34 35 35 32 30 26 24 24 24 22 19 18 17 17 18 19 20 21 22 23 23 23 23 22 21 21 21 21 21 21 21 20 19 18 16 14 11 9 9

GFSGL_700_spd_042.txt.gz
Wind_Speed
33 35 37 38 39 37 37 39 39 38 38 38 38 38 38 37 38 39 39 41 42 42 43 45 46 48 49 51 52 54 56 59 65 65 66 65 61 65 66 66 60 58 57
36 39 39 37 36 36 37 37 37 37 38 38 37 37 38 39 39 38 39 39 40 41 43 44 46 48 50 52 53 55 56 58 61 66 64 67 67 62 63 66 68 65 62
43 40 36 35 35 36 36 36 37 38 37 37 38 38 37 37 37 38 38 38 39 40 43 47 49 52 53 54 54 54 55 57 58 62 64 64 67 67 65 64 65 68 67
37 34 35 35 35 36 36 36 36 36 37 38 36 36 36 36 36 37 39 40 40 42 43 46 50 51 53 53 52 53 54 55 56 59 60 62 63 64 67 66 66 67 69
34 35 35 35 35 35 34 34 36 37 38 37 35 36 36 36 38 38 39 39 40 41 44 48 51 53 53 52 51 51 53 55 56 59 59 60 60 64 66 66 65 63 65
35 35 35 35 34 33 33 35 37 37 36 36 37 37 37 38 38 38 39 40 41 43 46 49 52 54 53 51 50 50 51 52 54 56 57 59 59 60 63 64 66 64 60
34 33 34 33 32 33 34 36 37 37 38 38 38 39 39 39 39 39 40 41 42 44 47 50 52 55 52 51 49 49 49 49 49 49 49 49 49 46 48 50 52 57 60
32 32 31 32 33 34 35 36 38 39 39 39 40 41 41 41 41 41 42 43 43 45 48 51 53 56 52 51 49 49 48 46 43 43 43 42 41 38 37 37 37 41 43
30 29 29 31 33 35 35 36 38 39 40 41 42 42 42 41 42 42 44 44 44 46 50 52 54 56 51 47 47 47 45 43 40 40 39 39 38 37 36 36 35 36 37
28 27 29 31 33 33 34 36 38 39 40 42 43 44 43 42 43 43 45 44 46 48 50 53 55 56 51 46 45 45 45 43 41 37 34 35 36 38 37 38 39 40 41
27 27 28 30 31 32 34 36 37 39 40 42 44 45 45 43 43 44 44 44 47 50 52 55 56 53 48 43 41 41 42 42 40 38 36 34 31 31 30 32 35 37 38
27 28 30 29 29 32 33 35 37 39 42 43 44 44 45 45 45 44 43 44 46 49 52 55 55 50 45 41 39 39 40 39 38 37 34 31 30 29 29 30 30 31 32
28 29 29 30 32 34 35 37 39 41 43 44 45 44 45 45 44 42 44 44 46 48 52 50 51 46 42 39 37 38 38 37 36 35 34 32 30 30 30 29 30 30 32
31 31 32 33 35 37 38 38 40 43 44 45 44 45 46 44 42 42 43 43 46 49 52 49 45 41 38 38 36 36 37 37 36 34 33 32 32 31 30 30 31 31 35
33 35 36 36 37 39 39 39 41 41 42 43 44 46 45 43 43 42 41 43 47 49 50 46 41 36 34 34 33 35 35 35 34 34 33 32 31 32 31 32 33 33 35
35 37 37 36 37 38 40 39 39 41 43 44 46 46 45 44 43 42 42 43 46 47 47 42 37 33 33 31 30 30 32 33 33 32 32 32 31 30 29 29 30 32 33
35 35 36 37 37 38 38 40 41 44 46 46 46 46 46 45 44 42 41 43 45 46 43 38 34 32 31 30 30 30 29 29 30 30 31 31 31 30 30 29 28 29 29
34 35 36 34 36 39 42 45 47 48 48 47 46 46 45 44 43 41 41 44 45 43 40 35 32 31 30 29 29 29 28 27 27 28 29 30 30 30 29 28 27 28 29
34 34 35 38 42 45 47 49 50 51 51 50 48 47 45 43 42 41 42 44 44 40 36 33 31 31 30 29 29 28 27 26 27 27 28 29 29 29 27 27 27 26 28
35 37 40 43 47 49 51 52 53 54 54 53 52 49 47 45 43 41 42 44 43 38 34 32 31 31 31 30 29 28 26 26 25 26 27 27 27 28 27 26 26 26 25
39 42 45 48 51 53 55 57 58 60 59 58 56 53 51 48 45 41 42 43 41 36 33 31 30 30 30 29 28 26 26 25 24 25 25 26 27 25 25 25 25 24 24
43 46 48 50 53 56 59 61 62 62 61 59 56 53 52 49 45 41 41 40 39 34 32 30 28 27 26 25 25 24 24 24 23 23 23 23 25 24 24 23 23 22 21
45 46 48 52 56 59 61 61 61 61 59 56 52 49 49 47 44 40 39 38 35 32 30 28 25 23 23 23 22 22 22 23 22 23 22 22 23 22 23 23 21 20 19
45 47 50 53 55 56 58 56 53 51 50 47 46 44 43 41 39 37 36 34 31 29 26 24 21 20 20 21 21 21 21 22 22 21 22 22 21 21 22 21 21 20 18
46 49 49 48 50 50 47 44 41 38 36 35 34 35 34 34 33 32 32 30 27 24 23 21 19 18 19 19 19 19 19 21 22 21 21 21 21 21 21 21 20 19 18
45 44 42 41 43 40 36 33 29 26 23 23 24 26 27 27 28 27 27 26 23 21 21 19 18 18 18 18 18 19 19 20 21 21 21 20 20 20 20 19 19 19 17

GFSGL_700_spd_045.txt.gz
Wind_Speed
30 30 31 32 34 37 41 42 40 38 39 39 39 40 41 40 41 42 41 41 41 41 41 42 43 44 46 47 49 51 53 55 60 60 61 61 61 61 60 59 59 60 61
32 33 35 34 37 40 41 39 38 38 39 38 40 40 40 41 41 40 39 39 39 39 39 41 43 44 46 48 49 50 52 54 57 60 58 60 62 61 61 60 60 60 61
35 36 36 37 40 42 39 38 38 38 39 40 39 39 40 40 39 38 38 38 38 39 40 41 42 45 46 48 51 52 54 55 56 58 58 58 59 59 60 59 58 58 58
39 38 37 37 37 38 37 37 38 38 38 38 37 38 39 38 38 38 37 38 39 40 41 42 43 44 47 49 51 53 55 55 55 55 54 55 56 57 59 60 58 57 56
40 39 37 36 37 38 37 38 37 37 36 37 38 38 38 38 38 38 39 40 41 41 42 42 43 45 46 49 53 54 55 55 53 53 52 53 54 55 56 56 58 58 57
43 41 34 36 38 38 37 36 37 35 37 39 38 38 39 38 39 40 41 41 42 43 44 44 46 47 48 51 54 54 56 55 53 51 51 52 51 51 52 52 52 52 53
40 39 36 38 39 38 36 36 34 36 38 39 39 40 40 40 41 41 42 42 43 44 45 46 47 47 49 53 55 56 57 53 51 49 50 49 49 48 49 49 47 46 44
40 37 38 38 37 36 35 34 35 37 38 39 40 41 41 42 43 43 44 44 45 46 47 48 49 48 49 54 57 59 57 51 48 48 47 47 47 46 47 47 45 44 41
38 40 37 34 34 34 34 34 36 37 38 38 40 41 42 43 45 46 47 46 46 47 48 49 47 48 50 55 58 58 56 50 47 46 45 43 43 42 40 43 44 44 43
40 35 31 31 33 33 33 35 36 37 37 38 40 41 43 44 45 46 47 47 47 48 50 47 47 48 51 55 56 56 54 48 46 44 42 41 39 39 37 35 35 40 41
35 33 31 31 31 31 33 35 36 35 36 37 39 42 44 45 46 48 47 47 47 49 48 47 47 49 53 55 54 52 50 47 44 44 43 41 38 36 36 34 34 34 36
30 30 29 29 30 31 33 34 34 35 36 37 39 42 44 45 47 48 47 48 49 49 47 48 47 50 54 55 52 49 45 44 43 42 40 38 37 35 34 34 34 34 34
28 28 28 30 31 32 32 34 36 37 39 41 42 43 45 45 46 45 46 48 49 48 48 47 46 49 53 53 49 45 42 41 41 39 38 37 35 34 33 33 33 35 35
28 28 30 32 32 34 35 37 39 40 41 43 42 42 42 44 45 46 47 48 48 47 48 47 46 48 50 50 47 42 40 39 39 38 37 36 34 33 32 32 33 31 35
31 32 34 36 36 37 39 41 41 41 42 42 42 42 43 45 47 50 50 49 47 47 48 45 46 46 48 47 43 39 38 37 36 36 36 36 34 32 30 30 31 31 31
33 35 38 39 40 40 42 39 40 42 42 42 43 44 46 49 51 51 51 49 48 47 46 45 45 46 47 45 40 36 35 35 35 35 35 36 35 34 32 29 29 30 31
35 38 40 41 42 41 41 41 44 42 43 45 47 49 50 52 53 52 52 51 50 47 45 44 44 45 46 42 38 34 32 33 33 33 34 34 34 33 33 30 28 28 28
37 38 39 41 41 41 42 44 43 45 47 49 51 53 55 55 55 55 53 51 50 47 45 44 43 44 44 41 37 33 33 32 32 32 31 32 33 33 32 30 29 29 28
38 38 39 40 41 43 43 43 46 49 52 54 56 57 58 58 58 57 54 52 49 47 46 44 43 44 42 39 36 33 33 32 31 30 29 30 30 31 30 30 30 28 27
39 39 41 42 42 42 44 48 51 54 56 58 60 61 63 63 61 60 57 54 51 47 46 43 42 42 39 37 34 32 31 30 30 29 27 27 27 28 29 29 28 28 26
39 41 42 42 43 46 49 52 55 58 60 62 63 64 64 63 61 59 57 54 50 47 44 41 41 40 37 35 32 30 28 27 27 26 25 25 25 25 25 27 27 26 27
41 41 42 44 46 49 52 55 58 60 62 63 64 64 62 61 59 55 52 48 46 44 42 39 38 37 35 32 28 26 24 24 25 24 23 23 24 23 23 24 24 25 25
42 42 43 44 48 51 54 56 59 60 60 61 60 58 55 52 49 47 44 42 40 39 38 37 34 33 32 27 25 23 22 22 23 22 22 22 22 21 22 22 22 23 23
41 43 46 47 49 51 53 55 56 55 55 53 51 48 44 41 38 36 35 35 35 35 34 33 31 29 27 23 22 21 20 21 22 21 22 22 21 22 21 20 21 22 22
43 45 45 47 50 51 51 50 47 47 46 43 39 36 31 27 25 26 28 30 31 30 30 28 27 26 22 20 20 19 19 20 21 21 20 21 21 21 21 21 22 22 21
42 44 45 47 47 47 44 41 39 38 36 32 29 26 23 19 19 20 22 24 25 25 24 25 24 22 19 19 19 18 19 20 21 21 21 20 20 21 21 21 21 21 21

GFSGL_700_spd_048.txt.gz
Wind_Speed
32 33 33 32 31 31 33 35 36 37 40 38 37 38 39 40 41 41 42 42 41 40 39 38 37 38 40 42 44 46 47 50 54 52 55 57 58 59 58 54 55 57 56
35 35 34 33 32 33 36 36 36 38 38 38 39 40 40 41 41 41 40 39 38 37 36 36 37 39 40 42 43 45 47 50 53 56 57 55 58 59 60 59 55 54 55
37 36 35 34 35 36 37 37 38 38 38 39 40 40 41 40 39 38 37 37 36 36 37 38 38 39 40 42 44 47 49 51 52 55 57 56 57 57 58 56 54 50 50
38 37 36 36 37 38 39 39 41 38 37 38 39 40 39 37 36 36 36 36 36 37 38 38 38 40 42 44 46 48 50 52 53 53 55 58 58 55 54 54 51 50 47
38 38 37 39 40 39 39 38 37 38 37 39 39 39 37 36 35 36 37 37 37 39 39 39 39 41 43 45 48 50 51 52 54 56 59 61 58 54 52 51 51 49 44
39 39 41 42 41 40 38 36 39 39 38 38 38 37 37 37 36 37 38 39 40 41 40 41 41 42 44 46 49 49 51 53 55 59 61 61 56 52 50 51 50 50 47
40 42 44 44 43 42 35 38 40 38 37 36 36 37 37 37 37 38 40 41 42 41 42 43 43 44 46 49 49 48 50 51 55 58 60 57 55 50 48 48 47 47 46
43 45 46 46 44 37 39 39 38 36 35 36 36 36 36 36 38 40 41 42 43 43 44 45 45 44 47 49 48 49 49 52 54 57 57 54 51 49 48 49 49 48 47
43 44 44 42 39 39 39 38 36 35 36 36 36 36 35 36 38 40 41 42 43 44 45 45 45 45 48 48 48 49 50 51 54 54 52 50 47 44 45 47 45 46 46
42 41 41 40 40 41 37 35 34 35 35 35 36 35 35 36 36 38 40 42 43 43 44 43 44 46 49 48 49 50 53 53 55 53 49 45 44 42 40 41 43 45 45
41 41 39 40 39 36 34 34 33 33 34 36 36 35 35 34 37 39 40 41 42 43 43 44 47 49 49 48 49 51 52 54 54 51 48 45 43 41 38 37 37 39 42
38 39 39 37 35 33 32 31 32 33 34 35 35 36 36 37 39 39 40 41 41 42 44 47 49 50 48 48 49 50 51 53 52 49 46 42 42 40 37 35 34 34 36
38 36 36 34 33 31 31 31 32 33 34 35 36 38 39 40 43 42 41 42 44 45 47 49 51 50 48 48 48 48 50 52 50 47 44 41 40 39 37 37 34 34 33
35 34 33 32 31 31 31 32 34 35 36 38 39 41 42 44 45 44 44 45 47 48 50 51 52 50 48 49 48 48 49 50 48 46 43 40 38 37 35 36 36 33 32
30 31 30 30 32 33 35 37 38 39 40 42 43 43 44 46 46 46 47 48 49 51 52 53 52 49 48 47 47 47 48 48 45 43 41 40 37 36 34 34 35 34 33
28 29 31 33 35 37 40 42 43 44 43 44 44 44 47 48 49 50 50 52 53 55 56 55 53 50 47 45 45 45 46 45 43 41 39 39 38 36 35 33 34 33 32
30 33 35 37 39 42 43 45 46 46 46 46 45 47 50 49 50 51 54 56 57 59 60 57 54 51 49 46 44 44 44 43 41 39 38 37 36 35 34 33 33 33 30
33 35 37 39 40 42 43 45 45 46 47 46 48 49 48 50 53 56 58 60 61 62 62 58 53 51 48 48 44 43 42 41 39 37 36 35 34 33 32 31 30 32 31
36 37 38 39 39 41 42 43 45 45 46 48 47 48 52 55 58 60 63 66 67 66 63 58 53 50 47 46 43 41 40 38 36 34 33 32 31 31 30 29 29 28 30
40 40 39 38 38 39 40 42 44 45 45 46 49 52 56 60 62 65 67 67 66 62 58 55 50 46 44 43 41 38 37 35 33 32 29 29 28 29 28 27 27 27 27
40 38 37 37 37 38 40 41 42 43 46 50 54 57 60 64 66 67 66 65 63 58 53 49 45 42 39 39 38 36 34 31 30 28 26 26 26 25 25 25 25 25 26
38 37 37 37 38 39 39 41 43 47 51 55 57 60 61 62 63 63 63 60 55 49 42 40 38 36 34 35 34 32 30 27 26 24 24 23 23 24 23 22 22 23 22
37 36 37 38 38 40 41 44 48 52 53 56 58 58 56 56 56 54 52 48 43 37 31 30 31 30 30 30 30 28 25 23 23 22 22 21 21 21 21 20 21 21 20
36 37 38 39 39 41 44 47 49 52 55 55 52 50 49 48 46 43 38 32 27 23 22 23 25 25 26 27 26 24 21 20 20 21 20 19 20 20 19 19 20 19 19
37 38 38 39 40 42 45 48 50 51 50 47 44 42 40 38 35 31 27 22 18 17 18 19 20 22 23 22 22 21 19 18 18 20 19 18 19 19 19 19 19 18 20
35 35 36 38 41 44 45 46 45 44 42 39 37 35 33 30 27 24 20 17 15 14 15 16 17 19 19 19 18 18 17 17 18 19 19 18 18 19 19 18 19 19 19